sat.trackr.live / text

‹ back to catalog

ISS (UNITY)

NORAD 25575 · 1998-069F

PAYLOAD ACTIVE UNKNOWN

§ Identity

Operator
Country
ISS
Launch date
1998-12-04
Launch site
AFETR
Launch vehicle
Mass (kg)
RCS (m²)

External: N2YO · Heavens-Above · Gunter

§ Orbital elements

Epoch: 2026-09-19T19:40:49.539648Z

Period
92.95 min
Inclination
51.6308°
Eccentricity
0.0004804
Mean motion
15.49182662 rev/d
Perigee alt
415.9 km
Apogee alt
422.4 km
Semi-major
6,797.3 km
B*
1.2771e-4
RAAN
191.7362°
Arg perigee
159.3703°
Mean anomaly
200.7480°
Rev number
58,674

§ Raw data

ISS (UNITY)1 25575U 98069F   26262.82001782  .00006637  00000+0  12771-3 0  99942 25575  51.6308 191.7362 0004804 159.3703 200.7480 15.49182662586747

JSON: /api/v1/satellites/25575 · /tle

For live sub-satellite position, see the globe view (requires WebGL).

§ Visibility from observer

Set your observer location to see the next 7 days of passes ≥ 10°. The values pass through the URL so the page stays shareable.

No JS? Fill the form by hand. The geolocation button needs JavaScript.